Regional Weather Roundup
Issued by NWS

Home | Current Version | Previous Version | Graphics & Text | Print | Product List | Glossary On
Versions: 1 2 3 4 5 6 7 8 9 10 11 12 13 14 15 16 17 18 19 20 21 22 23 24 25 26 27 28 29 30 31 32 33 34 35 36 37 38 39 40 41 42 43 44 45 46 47 48 49 50
000
ASUS45 KCYS 271410
RWRWY

WYOMING REGIONAL WEATHER ROUNDUP
NATIONAL WEATHER SERVICE CHEYENNE WY
800 AM MDT WED MAY 27 2015

NOTE:  "FAIR" INDICATES FEW OR NO CLOUDS BELOW 12,000 FEET
WITH NO SIGNIFICANT WEATHER AND/OR OBSTRUCTIONS TO VISIBILITY.

WYZ001-271500-
YELLOWSTONE NATIONAL PARK

CITY           SKY/WX    TMP DP  RH WIND       PRES   REMARKS
LK YELLOWSTONE   N/A     40  37  89 CALM      30.17R
W YELLOWSTONE  NOT AVBL

$$
WYZ002>013-054>058-071-098>099-271500-
NORTHERN WYOMING

CITY           SKY/WX    TMP DP  RH WIND       PRES   REMARKS
JACKSON        CLOUDY    43  43 100 CALM      30.13R
CODY           PTSUNNY   54  45  71 CALM      30.03S
GREYBULL       CLOUDY    56  53  90 CALM      30.00S
WORLAND        PTSUNNY   55  52  89 W3        30.01R
SHERIDAN       CLOUDY    53  50  89 CALM      30.00R
BUFFALO        CLOUDY    52  48  86 NW9       30.02R
GILLETTE       FAIR      56  50  80 S12       29.99S
HULETT         PTSUNNY   55  50  82 CALM      30.01S
NEWCASTLE      FAIR      61  46  59 SE12      30.03R

$$
WYZ014>020-022>026-101>103-271500-
CENTRAL WYOMING

CITY           SKY/WX    TMP DP  RH WIND       PRES   REMARKS
BIG PINEY      FAIR      46  40  79 E3        30.15R
PINEDALE       FAIR      43  41  93 NW3       30.16R
DUBOIS         FAIR      46  36  66 N14G20    30.10S
LANDER         FAIR      51  44  77 E5        30.05R
RIVERTON       PTSUNNY   51  48  89 W7        30.06R
CASPER         PTSUNNY   54  46  74 SW17G24   30.04S
DOUGLAS        CLOUDY    57  51  80 VRB3      30.04S

$$
WYZ021-027>030-104>119-271500-
SOUTHERN WYOMING

CITY           SKY/WX    TMP DP  RH WIND       PRES   REMARKS
EVANSTON       FAIR      45  41  86 CALM      30.17R
KEMMERER       FAIR      45  41  87 N3        30.18R
FORT BRIDGER   SUNNY     48  45  87 W8        30.19R
ROCK SPRINGS   FAIR      47  41  80 SW12      30.14S
DIXON          CLOUDY    50  44  80 SW5       30.20R
RAWLINS        CLOUDY    47  43  86 SW10      30.15R
SARATOGA       CLOUDY    45  43  93 SE6       30.18R
LARAMIE        CLOUDY    50  40  68 SW14      30.14R
CHEYENNE       FAIR      58  43  57 W12       30.10R
TORRINGTON     FAIR      57  53  86 SE6       30.02S
PINE BLUFFS    CLOUDY    54  50  87 CALM      30.08S

$$


USA.gov is the U.S. government's official web portal to all federal, state and local government web resources and services.